FDX12 LSZH-EGNX

Flight info

Callsign FDX12
Flight time 1h 25m
Altitude 34000
Route VEBIT T10 TORPA DCT REKLA DCT RLP DCT ROTSI DCT KOTUN DCT NINAL DCT ABNUR DCT DIMAL DCT ALESO T420 HEMEL
Aircraft B77L/H-SDE1E2E3FGHIJ2J3J4J5M1RWXY/LB1D1

Departure

Time 2026-05-07 06:16
Airport Zürich Airport (LSZH)

Arrival

Time 2026-05-07 07:41
Airport East Midlands Airport (EGNX)
Time Latitude Longitude Altitude Speed Heading
2026-05-07 05:50 47.44583 8.56312 1401 ft 0 kts 65°
2026-05-07 06:01 47.44582 8.56310 1401 ft 2 kts 65°
2026-05-07 06:02 47.44571 8.56276 1401 ft 4 kts 63°
2026-05-07 06:02 47.44560 8.56245 1401 ft 4 kts 56°
2026-05-07 06:02 47.44546 8.56222 1401 ft 4 kts 16°
2026-05-07 06:02 47.44525 8.56222 1401 ft 4 kts 338°
2026-05-07 06:03 47.44503 8.56236 1401 ft 1 kts 335°
2026-05-07 06:03 47.44498 8.56239 1401 ft 0 kts 335°
2026-05-07 06:05 47.44500 8.56238 1401 ft 2 kts 334°
2026-05-07 06:06 47.44521 8.56223 1401 ft 4 kts 334°
2026-05-07 06:06 47.44551 8.56205 1401 ft 8 kts 337°
2026-05-07 06:06 47.44629 8.56154 1406 ft 13 kts 335°
2026-05-07 06:06 47.44714 8.56094 1409 ft 13 kts 334°
2026-05-07 06:07 47.44798 8.56034 1410 ft 13 kts 334°
2026-05-07 06:07 47.44882 8.55972 1409 ft 13 kts 328°
2026-05-07 06:07 47.44940 8.55870 1410 ft 13 kts 288°
2026-05-07 06:07 47.44956 8.55733 1403 ft 13 kts 281°
2026-05-07 06:08 47.45016 8.55634 1411 ft 14 kts 332°
2026-05-07 06:08 47.45027 8.55626 1401 ft 0 kts 333°
2026-05-07 06:08 47.45028 8.55624 1410 ft 1 kts 333°
2026-05-07 06:08 47.45050 8.55608 1401 ft 6 kts 334°
2026-05-07 06:09 47.45108 8.55569 1401 ft 12 kts 336°
2026-05-07 06:09 47.45163 8.55532 1410 ft 14 kts 336°
2026-05-07 06:09 47.45271 8.55461 1409 ft 20 kts 333°
2026-05-07 06:09 47.45399 8.55367 1409 ft 21 kts 334°
2026-05-07 06:10 47.45530 8.55279 1411 ft 21 kts 333°
2026-05-07 06:10 47.45656 8.55290 1406 ft 21 kts 64°
2026-05-07 06:10 47.45663 8.55502 1405 ft 21 kts 95°
2026-05-07 06:10 47.45646 8.55713 1409 ft 21 kts 96°
2026-05-07 06:11 47.45643 8.55757 1401 ft 0 kts 96°
2026-05-07 06:11 47.45643 8.55760 1401 ft 2 kts 95°
2026-05-07 06:11 47.45640 8.55844 1407 ft 15 kts 94°
2026-05-07 06:12 47.45627 8.56027 1401 ft 18 kts 96°
2026-05-07 06:12 47.45612 8.56213 1401 ft 18 kts 97°
2026-05-07 06:12 47.45598 8.56401 1401 ft 20 kts 96°
2026-05-07 06:12 47.45579 8.56670 1410 ft 28 kts 96°
2026-05-07 06:13 47.45561 8.56910 1401 ft 0 kts 96°
2026-05-07 06:13 47.45561 8.56913 1401 ft 0 kts 96°
2026-05-07 06:13 47.45561 8.56919 1401 ft 1 kts 96°
2026-05-07 06:13 47.45568 8.56982 1410 ft 10 kts 52°
2026-05-07 06:14 47.45601 8.57004 1403 ft 1 kts 15°
2026-05-07 06:14 47.45614 8.57009 1403 ft 3 kts 15°
2026-05-07 06:14 47.45641 8.57015 1402 ft 5 kts 356°
2026-05-07 06:14 47.45660 8.56975 1412 ft 1 kts 277°
2026-05-07 06:15 47.45687 8.56637 1402 ft 81 kts 276°
2026-05-07 06:16 47.45784 8.55351 1406 ft 168 kts 278°
2026-05-07 06:16 47.45980 8.53629 2270 ft 167 kts 282°
2026-05-07 06:16 47.46173 8.51850 3025 ft 190 kts 274°
2026-05-07 06:16 47.46292 8.49740 3303 ft 222 kts 274°
2026-05-07 06:17 47.46238 8.47340 3568 ft 248 kts 252°
2026-05-07 06:17 47.45272 8.45208 4388 ft 256 kts 219°
2026-05-07 06:17 47.43661 8.44078 5326 ft 258 kts 202°
2026-05-07 06:17 47.42195 8.42607 6043 ft 260 kts 236°
2026-05-07 06:18 47.41353 8.40291 6940 ft 258 kts 244°
2026-05-07 06:18 47.40441 8.37963 7802 ft 264 kts 239°
2026-05-07 06:18 47.39427 8.35678 8702 ft 267 kts 238°
2026-05-07 06:18 47.38427 8.33338 9572 ft 270 kts 245°
2026-05-07 06:19 47.37619 8.30807 10271 ft 278 kts 245°
2026-05-07 06:19 47.36716 8.28209 10647 ft 302 kts 243°
2026-05-07 06:19 47.35688 8.25331 10879 ft 331 kts 243°
2026-05-07 06:19 47.34568 8.22214 11251 ft 353 kts 243°
2026-05-07 06:20 47.33402 8.18951 12024 ft 364 kts 243°
2026-05-07 06:20 47.32215 8.15626 12994 ft 369 kts 243°
2026-05-07 06:20 47.31018 8.12257 13963 ft 373 kts 243°
2026-05-07 06:20 47.29813 8.08842 14879 ft 378 kts 243°
2026-05-07 06:21 47.28591 8.05376 15720 ft 385 kts 243°
2026-05-07 06:21 47.27467 8.01790 16419 ft 388 kts 253°
2026-05-07 06:21 47.27096 7.97824 17137 ft 396 kts 272°
2026-05-07 06:21 47.27426 7.93803 17819 ft 399 kts 278°
2026-05-07 06:22 47.27853 7.89691 18542 ft 406 kts 278°
2026-05-07 06:22 47.28681 7.81463 20233 ft 410 kts 278°
2026-05-07 06:22 47.29079 7.77285 20944 ft 415 kts 278°
2026-05-07 06:23 47.29474 7.73037 21631 ft 420 kts 277°
2026-05-07 06:23 47.29868 7.68745 22299 ft 424 kts 277°
2026-05-07 06:23 47.30288 7.64417 23005 ft 427 kts 280°
2026-05-07 06:23 47.30933 7.60169 23648 ft 431 kts 286°
2026-05-07 06:24 47.31854 7.55923 24286 ft 434 kts 288°
2026-05-07 06:24 47.32809 7.51670 24878 ft 439 kts 288°
2026-05-07 06:24 47.33763 7.47404 25410 ft 444 kts 288°
2026-05-07 06:24 47.34728 7.43040 25980 ft 448 kts 288°
2026-05-07 06:25 47.35692 7.38637 26533 ft 452 kts 288°
2026-05-07 06:25 47.36653 7.34204 27060 ft 456 kts 287°
2026-05-07 06:25 47.37619 7.29727 27560 ft 460 kts 287°
2026-05-07 06:25 47.38592 7.25209 28036 ft 464 kts 287°
2026-05-07 06:26 47.39566 7.20685 28491 ft 468 kts 288°
2026-05-07 06:26 47.40546 7.16092 28965 ft 471 kts 287°
2026-05-07 06:26 47.41360 7.11386 29405 ft 473 kts 283°
2026-05-07 06:26 47.42056 7.06621 29834 ft 475 kts 282°
2026-05-07 06:27 47.42734 7.01840 30395 ft 474 kts 282°
2026-05-07 06:27 47.43410 6.97063 30990 ft 472 kts 282°
2026-05-07 06:27 47.44079 6.92383 31543 ft 470 kts 282°
2026-05-07 06:27 47.44760 6.87662 32042 ft 470 kts 282°
2026-05-07 06:28 47.45449 6.82913 32529 ft 470 kts 281°
2026-05-07 06:28 47.46133 6.78187 33041 ft 468 kts 281°
2026-05-07 06:28 47.46807 6.73534 33486 ft 468 kts 281°
2026-05-07 06:28 47.47482 6.68831 33923 ft 467 kts 281°
2026-05-07 06:29 47.48463 6.59252 34020 ft 472 kts 275°
2026-05-07 06:29 47.49123 6.49664 34011 ft 466 kts 275°
2026-05-07 06:30 47.49782 6.40131 34023 ft 466 kts 275°
2026-05-07 06:30 47.50454 6.30649 34017 ft 467 kts 275°
2026-05-07 06:31 47.51131 6.21093 34016 ft 467 kts 275°
2026-05-07 06:31 47.51800 6.11516 34021 ft 468 kts 275°
2026-05-07 06:32 47.52462 6.01908 34030 ft 469 kts 275°
2026-05-07 06:32 47.53129 5.92300 34020 ft 467 kts 277°
2026-05-07 06:33 47.53889 5.87626 34015 ft 468 kts 289°
2026-05-07 06:33 47.55241 5.83229 34028 ft 469 kts 298°
2026-05-07 06:33 47.57033 5.79247 34015 ft 470 kts 309°
2026-05-07 06:33 47.59227 5.75647 34027 ft 470 kts 312°
2026-05-07 06:34 47.63732 5.68590 34024 ft 472 kts 312°
2026-05-07 06:34 47.68220 5.61463 34016 ft 473 kts 311°
2026-05-07 06:35 47.72669 5.54256 34023 ft 473 kts 311°
2026-05-07 06:35 47.77110 5.47009 34020 ft 473 kts 311°
2026-05-07 06:36 47.81541 5.39764 34020 ft 473 kts 311°
2026-05-07 06:36 47.85928 5.32576 34023 ft 472 kts 311°
2026-05-07 06:37 47.90347 5.25322 34013 ft 471 kts 311°
2026-05-07 06:37 47.94739 5.18107 34014 ft 470 kts 311°
2026-05-07 06:38 47.99131 5.10887 34021 ft 468 kts 311°
2026-05-07 06:38 48.03512 5.03665 34015 ft 468 kts 311°
2026-05-07 06:39 48.07892 4.96421 34025 ft 469 kts 311°
2026-05-07 06:39 48.12239 4.89210 34014 ft 469 kts 311°
2026-05-07 06:40 48.16628 4.81910 34013 ft 470 kts 311°
2026-05-07 06:40 48.20992 4.74629 34013 ft 470 kts 311°
2026-05-07 06:41 48.25366 4.67316 34014 ft 470 kts 311°
2026-05-07 06:41 48.29700 4.60045 34014 ft 470 kts 311°
2026-05-07 06:42 48.34058 4.52696 34015 ft 469 kts 311°
2026-05-07 06:42 48.38369 4.45398 34014 ft 468 kts 311°
2026-05-07 06:43 48.42701 4.38049 34018 ft 468 kts 311°
2026-05-07 06:43 48.47008 4.30722 34022 ft 468 kts 311°
2026-05-07 06:44 48.51324 4.23359 34016 ft 468 kts 311°
2026-05-07 06:44 48.55635 4.15983 34016 ft 468 kts 311°
2026-05-07 06:45 48.59907 4.08653 34013 ft 467 kts 311°
2026-05-07 06:45 48.64215 4.01242 34017 ft 468 kts 311°
2026-05-07 06:46 48.68495 3.93858 34047 ft 468 kts 311°
2026-05-07 06:46 48.72793 3.86492 34044 ft 468 kts 313°
2026-05-07 06:47 48.77403 3.79526 34045 ft 467 kts 315°
2026-05-07 06:47 48.82076 3.72669 34050 ft 466 kts 315°
2026-05-07 06:48 48.86725 3.65794 34045 ft 467 kts 315°
2026-05-07 06:48 48.91364 3.58869 34046 ft 467 kts 315°
2026-05-07 06:49 48.95959 3.51972 34047 ft 467 kts 315°
2026-05-07 06:49 49.00581 3.45017 34045 ft 467 kts 315°
2026-05-07 06:50 49.05201 3.38045 34042 ft 467 kts 315°
2026-05-07 06:50 49.09817 3.31063 34050 ft 467 kts 315°
2026-05-07 06:51 49.14423 3.24080 34047 ft 467 kts 315°
2026-05-07 06:51 49.18999 3.17121 34047 ft 466 kts 315°
2026-05-07 06:52 49.23591 3.10116 34046 ft 466 kts 315°
2026-05-07 06:52 49.27440 3.04231 34048 ft 466 kts 315°
2026-05-07 06:53 49.32012 2.97222 34046 ft 466 kts 315°
2026-05-07 06:53 49.36586 2.90190 34048 ft 465 kts 315°
2026-05-07 06:54 49.41163 2.83133 34049 ft 465 kts 315°
2026-05-07 06:54 49.45699 2.76121 34046 ft 465 kts 315°
2026-05-07 06:55 49.50258 2.69054 34049 ft 465 kts 314°
2026-05-07 06:55 49.54823 2.61958 34044 ft 465 kts 314°
2026-05-07 06:56 49.59368 2.54882 34048 ft 464 kts 315°
2026-05-07 06:56 49.64302 2.48471 34049 ft 464 kts 322°
2026-05-07 06:57 49.69443 2.42531 34048 ft 465 kts 323°
2026-05-07 06:57 49.74616 2.36525 34048 ft 465 kts 322°
2026-05-07 06:58 49.79768 2.30464 34046 ft 465 kts 322°
2026-05-07 06:58 49.84904 2.24386 34049 ft 464 kts 322°
2026-05-07 06:59 49.90036 2.18293 34044 ft 464 kts 322°
2026-05-07 06:59 49.95152 2.12204 34047 ft 465 kts 322°
2026-05-07 07:00 50.00289 2.06079 34046 ft 464 kts 322°
2026-05-07 07:00 50.05417 1.99943 34047 ft 465 kts 322°
2026-05-07 07:01 50.10551 1.93785 34046 ft 465 kts 322°
2026-05-07 07:01 50.15650 1.87652 34049 ft 465 kts 322°
2026-05-07 07:02 50.20481 1.80954 34047 ft 464 kts 315°
2026-05-07 07:02 50.25060 1.73893 34046 ft 464 kts 315°
2026-05-07 07:03 50.29668 1.66789 34046 ft 464 kts 315°
2026-05-07 07:03 50.34262 1.59745 34049 ft 465 kts 315°
2026-05-07 07:04 50.38889 1.52650 34045 ft 465 kts 315°
2026-05-07 07:04 50.43501 1.45555 34048 ft 465 kts 315°
2026-05-07 07:05 50.48137 1.38403 34047 ft 466 kts 315°
2026-05-07 07:05 50.52621 1.31116 34061 ft 466 kts 312°
2026-05-07 07:06 50.56989 1.23539 34056 ft 466 kts 312°
2026-05-07 07:06 50.61465 1.16220 34053 ft 467 kts 315°
2026-05-07 07:07 50.66100 1.09002 34058 ft 467 kts 315°
2026-05-07 07:07 50.70685 1.01795 34065 ft 467 kts 315°
2026-05-07 07:08 50.75268 0.94501 34065 ft 468 kts 314°
2026-05-07 07:08 50.79852 0.87174 34066 ft 468 kts 314°
2026-05-07 07:09 50.84417 0.79864 34077 ft 468 kts 314°
2026-05-07 07:09 50.89015 0.72506 34073 ft 469 kts 315°
2026-05-07 07:10 50.93616 0.65167 34072 ft 469 kts 315°
2026-05-07 07:10 50.98181 0.57842 34077 ft 469 kts 314°
2026-05-07 07:11 51.02730 0.50406 34076 ft 469 kts 314°
2026-05-07 07:11 51.07264 0.42986 34070 ft 469 kts 315°
2026-05-07 07:12 51.11972 0.35745 34076 ft 469 kts 317°
2026-05-07 07:12 51.16730 0.28604 34075 ft 470 kts 317°
2026-05-07 07:13 51.21438 0.21443 34076 ft 470 kts 316°
2026-05-07 07:13 51.26155 0.14199 33806 ft 474 kts 316°
2026-05-07 07:14 51.28561 0.10499 32981 ft 482 kts 316°
2026-05-07 07:14 51.30971 0.06806 32438 ft 475 kts 317°
2026-05-07 07:14 51.33471 0.03419 31851 ft 469 kts 323°
2026-05-07 07:14 51.36133 0.00460 31262 ft 463 kts 329°
2026-05-07 07:15 51.38890 -0.02149 30704 ft 458 kts 330°
2026-05-07 07:15 51.41639 -0.04705 30138 ft 454 kts 330°
2026-05-07 07:15 51.44322 -0.07203 29587 ft 449 kts 330°
2026-05-07 07:15 51.47012 -0.09728 29022 ft 445 kts 330°
2026-05-07 07:16 51.49672 -0.12248 28460 ft 441 kts 329°
2026-05-07 07:16 51.52303 -0.14756 27908 ft 437 kts 329°
2026-05-07 07:16 51.54903 -0.17245 27357 ft 433 kts 329°
2026-05-07 07:16 51.57491 -0.19727 26820 ft 430 kts 329°
2026-05-07 07:17 51.60025 -0.22157 26290 ft 426 kts 329°
2026-05-07 07:17 51.62565 -0.24594 25760 ft 423 kts 329°
2026-05-07 07:17 51.65085 -0.27016 25237 ft 419 kts 329°
2026-05-07 07:17 51.67589 -0.29422 24718 ft 416 kts 329°
2026-05-07 07:18 51.70048 -0.31774 24204 ft 413 kts 329°
2026-05-07 07:18 51.72513 -0.34133 23701 ft 410 kts 329°
2026-05-07 07:18 51.74960 -0.36477 23201 ft 407 kts 329°
2026-05-07 07:18 51.77391 -0.38809 22702 ft 404 kts 329°
2026-05-07 07:19 51.79802 -0.41127 22194 ft 402 kts 329°
2026-05-07 07:19 51.82194 -0.43435 21718 ft 399 kts 329°
2026-05-07 07:19 51.84574 -0.45746 21232 ft 396 kts 328°
2026-05-07 07:19 51.86892 -0.48002 20752 ft 393 kts 328°
2026-05-07 07:20 51.89227 -0.50281 20256 ft 390 kts 328°
2026-05-07 07:20 51.91548 -0.52547 19739 ft 388 kts 328°
2026-05-07 07:20 51.93856 -0.54804 19267 ft 385 kts 328°
2026-05-07 07:20 51.96144 -0.57043 18791 ft 382 kts 328°
2026-05-07 07:21 51.98416 -0.59267 18316 ft 379 kts 328°
2026-05-07 07:21 52.00664 -0.61470 17857 ft 376 kts 327°
2026-05-07 07:21 52.02894 -0.63658 17400 ft 373 kts 327°
2026-05-07 07:21 52.05100 -0.65826 16935 ft 369 kts 327°
2026-05-07 07:22 52.07288 -0.67978 16494 ft 366 kts 327°
2026-05-07 07:22 52.09465 -0.70120 16060 ft 365 kts 327°
2026-05-07 07:22 52.11631 -0.72259 15611 ft 364 kts 327°
2026-05-07 07:22 52.13785 -0.74388 15164 ft 361 kts 328°
2026-05-07 07:23 52.15921 -0.76499 14726 ft 357 kts 327°
2026-05-07 07:23 52.18009 -0.78565 14296 ft 353 kts 328°
2026-05-07 07:23 52.20108 -0.80644 13866 ft 352 kts 328°
2026-05-07 07:23 52.22210 -0.82727 13438 ft 351 kts 328°
2026-05-07 07:24 52.24274 -0.84776 13009 ft 350 kts 328°
2026-05-07 07:24 52.26344 -0.86830 12585 ft 346 kts 328°
2026-05-07 07:24 52.28395 -0.88861 12180 ft 342 kts 328°
2026-05-07 07:24 52.30415 -0.90860 11760 ft 330 kts 328°
2026-05-07 07:25 52.34170 -0.94583 10967 ft 307 kts 328°
2026-05-07 07:25 52.35979 -0.96380 10591 ft 296 kts 328°
2026-05-07 07:25 52.37688 -0.98078 10241 ft 280 kts 328°
2026-05-07 07:26 52.39350 -0.99732 9914 ft 277 kts 328°
2026-05-07 07:26 52.40991 -1.01357 9573 ft 274 kts 330°
2026-05-07 07:26 52.42713 -1.02646 9239 ft 271 kts 338°
2026-05-07 07:26 52.44449 -1.03702 8928 ft 268 kts 339°
2026-05-07 07:27 52.46190 -1.04770 8600 ft 265 kts 339°
2026-05-07 07:27 52.47900 -1.05847 8272 ft 258 kts 338°
2026-05-07 07:27 52.49525 -1.06963 7971 ft 246 kts 328°
2026-05-07 07:27 52.50777 -1.08735 7710 ft 231 kts 313°
2026-05-07 07:28 52.51863 -1.10594 7478 ft 223 kts 314°
2026-05-07 07:28 52.52922 -1.12384 7256 ft 214 kts 314°
2026-05-07 07:28 52.53939 -1.14100 7045 ft 205 kts 314°
2026-05-07 07:28 52.54927 -1.15761 6895 ft 203 kts 314°
2026-05-07 07:29 52.55904 -1.17397 6668 ft 202 kts 314°
2026-05-07 07:29 52.56885 -1.19040 6453 ft 201 kts 314°
2026-05-07 07:29 52.57860 -1.20672 6247 ft 197 kts 314°
2026-05-07 07:29 52.58784 -1.22218 6058 ft 181 kts 315°
2026-05-07 07:30 52.59640 -1.23647 5847 ft 170 kts 315°
2026-05-07 07:30 52.60465 -1.25027 5690 ft 169 kts 315°
2026-05-07 07:30 52.61294 -1.26412 5528 ft 170 kts 315°
2026-05-07 07:30 52.62131 -1.27809 5362 ft 172 kts 314°
2026-05-07 07:31 52.62976 -1.29222 5190 ft 174 kts 314°
2026-05-07 07:31 52.63822 -1.30638 5045 ft 174 kts 314°
2026-05-07 07:31 52.64670 -1.32060 4841 ft 172 kts 314°
2026-05-07 07:31 52.65494 -1.33436 4660 ft 168 kts 314°
2026-05-07 07:32 52.66311 -1.34804 4473 ft 166 kts 314°
2026-05-07 07:32 52.67123 -1.36167 4319 ft 169 kts 314°
2026-05-07 07:32 52.67959 -1.37565 4153 ft 173 kts 314°
2026-05-07 07:32 52.68802 -1.38976 3966 ft 171 kts 314°
2026-05-07 07:33 52.69619 -1.40350 3790 ft 167 kts 314°
2026-05-07 07:33 52.70435 -1.41717 3621 ft 168 kts 314°
2026-05-07 07:33 52.71258 -1.43102 3451 ft 169 kts 314°
2026-05-07 07:33 52.72085 -1.44493 3277 ft 169 kts 314°
2026-05-07 07:34 52.72913 -1.45879 3115 ft 169 kts 314°
2026-05-07 07:34 52.73734 -1.47263 2912 ft 166 kts 314°
2026-05-07 07:34 52.74510 -1.48570 2753 ft 155 kts 314°
2026-05-07 07:34 52.75236 -1.49791 2591 ft 145 kts 314°
2026-05-07 07:35 52.75934 -1.50974 2480 ft 144 kts 314°
2026-05-07 07:35 52.76646 -1.52173 2331 ft 147 kts 314°
2026-05-07 07:35 52.77355 -1.53363 2161 ft 144 kts 313°
2026-05-07 07:35 52.78043 -1.54559 2081 ft 144 kts 312°
2026-05-07 07:36 52.78737 -1.55736 2048 ft 145 kts 313°
2026-05-07 07:36 52.79450 -1.56931 2037 ft 147 kts 313°
2026-05-07 07:36 52.80159 -1.58116 1998 ft 143 kts 314°
2026-05-07 07:36 52.80934 -1.59111 1995 ft 143 kts 342°
2026-05-07 07:37 52.81904 -1.58887 1995 ft 145 kts 37°
2026-05-07 07:37 52.82359 -1.57497 2039 ft 143 kts 85°
2026-05-07 07:37 52.82427 -1.56391 1984 ft 145 kts 84°
2026-05-07 07:37 52.82585 -1.54763 1997 ft 143 kts 81°
2026-05-07 07:38 52.82726 -1.52627 1982 ft 139 kts 89°
2026-05-07 07:38 52.82762 -1.51034 1997 ft 139 kts 90°
2026-05-07 07:38 52.82784 -1.49945 2009 ft 141 kts 90°
2026-05-07 07:38 52.82816 -1.48315 1978 ft 148 kts 90°
2026-05-07 07:39 52.82850 -1.46614 1729 ft 142 kts 90°
2026-05-07 07:39 52.82874 -1.44993 1553 ft 141 kts 90°
2026-05-07 07:39 52.82903 -1.43391 1381 ft 140 kts 90°
2026-05-07 07:39 52.82934 -1.41785 1187 ft 139 kts 90°
2026-05-07 07:40 52.82964 -1.40182 1006 ft 139 kts 90°
2026-05-07 07:40 52.82993 -1.38597 809 ft 139 kts 90°
2026-05-07 07:40 52.83023 -1.37010 628 ft 138 kts 89°
2026-05-07 07:40 52.83052 -1.35423 453 ft 138 kts 89°
2026-05-07 07:41 52.83081 -1.33829 321 ft 134 kts 88°
2026-05-07 07:41 52.83103 -1.32452 303 ft 100 kts 88°
2026-05-07 07:41 52.83118 -1.31575 302 ft 52 kts 88°
2026-05-07 07:41 52.83086 -1.31332 298 ft 16 kts 144°
2026-05-07 07:42 52.82980 -1.31335 298 ft 16 kts 211°
2026-05-07 07:42 52.82949 -1.31507 299 ft 16 kts 268°
2026-05-07 07:42 52.82929 -1.31684 300 ft 16 kts 224°
2026-05-07 07:42 52.82842 -1.31743 301 ft 3 kts 184°